Location: Feigenhofen
(48.4939°N, 10.7793°E)
Time: 15:46:46
(UTC+00:00)

Cosmos 2228 - Pass Details

Date: 26 May 2022
Orbit: 586 x 617 km, 82.5° (Epoch: 29 June)

Event Time Altitude Azimuth Distance (km) Brightness Sun altitude
Rises 01:55:53 0° 349° (N) 2,895 7.1 -11.6°
Reaches altitude 10° 01:58:08 10° 348° (NNW) 1,982 6.2 -11.3°
Maximum altitude 02:02:31 78° 262° (W) 628 3.0 -10.9°
Drops below altitude 10° 02:06:50 10° 177° (S) 1,947 5.2 -10.4°
Enters shadow 02:07:49 - 176° (S) 2,351 5.6 -10.3°
